Notices

What's New in latest Release from April 7th, 2021:

- Updated Glossary, including Speed of Maximum Gust, and Total Hourly Precipitation

- Updated national and regional climate services offices contacts and prices information

- Addition of station inventory lists for 1981-2010, 1971-2000, and 1961-1990 Normals.

If you haven't already, please take our survey and provide feedback about our website: https://eccc.sondage-survey.ca/f/LanguageSelection.aspx?s=442ca660-fcf1-47c0-95a9-59707d6fd709

Hourly Data Report for January 05, 2021

STE-ANNE-DE-BELLEVUE 1
QUEBEC
Current Station Operator: ECCC - MSC

45°25'38.000" N
73°55'45.000" W
39.00 m
702FHL8
71377
WVQ

Download Data

Hourly Data (January 2021)
Hourly Data Report for January 5, 2021
TIME
LST
Temp Definition
°C
Dew Point Definition
°C
Rel Hum Definition
%
Precip. Amount Definition
mm

Wind Dir Definition
10's deg

Wind Spd Definition
km/h
Visibility Definition
km
Stn Press Definition
kPa
Hmdx Definition


Wind Chill Definition


Weather Definition


00:00 -2.3 -3.4 92 0.0 3 9   101.17   -6 LegendNANA
01:00 -2.3 -3.4 92 0.0 4 9   101.17   -6 LegendNANA
02:00 -2.7 -3.5 94 0.0 5 13   101.21   -7 LegendNANA
03:00 -3.1 -4.3 92 0.0 4 13   101.22   -8 LegendNANA
04:00 -3.5 -4.3 94 0.0 2 13   101.18   -8 LegendNANA
05:00 -3.6 -4.6 93 0.0 3 9   101.19   -7 LegendNANA
06:00 -3.7 -4.6 93 0.0 3 10   101.19   -8 LegendNANA
07:00 -3.7 -4.6 93 0.0 3 7   101.19   -7 LegendNANA
08:00 -3.5 -4.4 93 0.0 3 9   101.22   -7 LegendNANA
09:00 -3.1 -4.4 90 0.0 3 12   101.24   -8 LegendNANA
10:00 -2.8 -4.6 88 0.0 3 14   101.25   -8 LegendNANA
11:00 -2.8 -5.1 84 0.0 3 14   101.20   -8 LegendNANA
12:00 -2.7 -5.8 79 0.0 2 13   101.15   -7 LegendNANA
13:00 -2.9 -5.9 79 0.0 3 14   101.12   -8 LegendNANA
14:00 -2.9 -6.0 79 0.0 5 12   101.14   -7 LegendNANA
15:00 -2.7 -6.1 77 0.0 4 15   101.17   -8 LegendNANA
16:00 -2.8 -6.2 77 0.0 3 12   101.25   -7 LegendNANA
17:00 -3.0 -6.0 80 0.0 1 10   101.31   -7 LegendNANA
18:00 -3.0 -5.5 82 0.0 3 11   101.32   -7 LegendNANA
19:00 -3.2 -5.6 83 0.0 2 11   101.34   -7 LegendNANA
20:00 -3.1 -5.5 84 0.0 1 9   101.36   -7 LegendNANA
21:00 -3.2 -5.5 84 0.0 35 9   101.36   -7 LegendNANA
22:00 -3.3 -5.2 87 0.0 1 11   101.34   -8 LegendNANA
23:00 -3.5 -4.9 90 0.0 35 9   101.33   -7 LegendNANA

Notes on Data Quality.

Legend

  • E = Estimated
  • M = Missing
  • NA = Not Available*
  • [empty] = Indicates an unobserved value
Date modified: